Wind_Speed
15 15 15 16 16 15 15 16 16 16 16 16 17 16 17 17 17 17 17 17 18 18 18 18 17 17 17 18 18 18 19 19 20 20 19 19 20 20
16 16 16 17 17 16 16 16 17 18 18 17 17 17 17 18 18 17 18 18 19 19 19 19 18 18 18 18 19 19 19 19 19 20 20 20 21 22
18 18 18 18 17 17 17 17 18 18 19 18 19 19 19 19 19 19 19 19 20 20 20 19 19 19 19 18 19 19 19 19 20 21 21 22 23 24
19 19 19 19 18 18 19 19 19 20 20 19 20 20 20 20 20 20 20 20 20 20 20 19 19 19 19 20 20 20 20 20 20 21 22 23 24 25
19 20 20 20 20 20 20 20 20 20 20 20 20 20 21 21 21 20 20 21 21 20 20 20 20 20 20 20 20 21 20 21 22 22 23 23 24 24
21 21 21 21 21 21 21 20 21 20 20 20 21 21 21 21 21 21 20 21 21 21 21 21 21 21 21 21 21 22 21 22 23 23 23 24 24 25
23 23 22 22 22 22 22 21 21 21 20 20 21 21 21 21 20 20 20 20 21 21 21 22 22 22 23 22 22 22 22 22 22 22 23 23 24 25
23 24 24 23 23 22 22 22 22 21 21 21 21 21 21 21 20 20 20 20 21 22 22 22 22 23 24 23 23 22 23 23 23 22 23 24 24 25
24 24 24 24 23 22 22 22 22 22 22 21 21 21 21 21 21 21 21 21 21 22 22 22 22 22 23 23 23 23 23 23 24 24 23 24 25 26
24 25 24 24 23 22 22 23 23 23 22 22 22 22 23 23 23 22 22 22 21 21 22 22 21 22 22 23 23 24 24 24 24 24 24 25 25 26
25 25 24 24 23 23 23 23 23 23 23 23 23 23 23 23 23 23 23 22 22 22 22 22 21 22 22 23 23 24 25 24 25 25 25 25 26 27
26 25 24 24 23 23 23 23 24 24 24 24 23 23 23 23 24 24 24 23 23 23 23 22 22 22 23 23 23 24 25 26 26 26 25 25 26 26
26 25 24 24 24 24 24 24 24 25 24 23 23 23 24 24 24 25 24 24 23 23 23 23 23 23 23 24 24 24 25 25 25 26 26 26 26 26
26 25 25 25 25 25 25 25 25 25 24 24 24 24 24 24 25 25 25 25 25 24 24 25 24 24 25 25 25 25 24 25 25 26 26 26 27 27
27 27 26 26 26 26 25 25 24 25 25 25 25 25 25 25 25 25 25 25 25 26 26 27 27 26 26 26 25 25 25 25 25 25 25 26 26 27
28 27 27 27 26 26 25 25 25 25 26 26 25 26 26 26 26 26 26 26 26 27 27 28 28 27 26 26 26 26 26 26 26 26 26 26 26 26
28 27 27 26 26 25 25 25 26 26 26 26 26 27 27 27 27 26 27 26 26 26 27 28 28 28 27 26 26 26 26 26 27 27 27 26 26 27
28 28 27 27 26 26 25 25 26 27 27 27 27 27 27 26 26 26 26 26 27 27 27 27 28 27 26 26 26 27 27 27 27 28 28 28 28 29
27 27 27 27 27 27 26 26 27 27 27 26 27 27 27 26 26 25 25 26 26 27 27 27 27 26 26 26 26 27 27 28 28 28 29 29 29 30
27 27 27 27 27 27 26 26 27 27 26 26 26 26 26 26 26 26 26 26 25 26 26 26 25 25 26 26 26 26 28 28 28 28 29 29 29 30
27 27 27 27 26 26 25 25 26 26 26 26 26 27 27 26 26 26 26 25 25 25 25 25 24 24 24 24 25 25 26 27 27 27 28 28 28 28
26 26 26 26 26 26 26 26 27 27 27 27 27 27 27 26 26 26 26 26 26 25 25 25 24 24 24 24 24 25 25 25 25 26 26 26 27 27
26 25 25 25 26 27 28 28 28 28 28 28 27 28 28 27 27 27 27 27 27 26 25 24 24 25 24 24 25 25 25 25 25 25 26 27 27 26
Wind_Direction
309 308 307 306 303 298 299 298 298 297 297 298 297 295 293 292 291 288 288 284 284 285 282 279 277 276 277 276 272 268 265 260 256 252 249 246 243 240
307 306 306 306 304 301 298 296 297 298 297 297 297 294 291 292 290 291 288 283 284 282 279 279 277 276 275 274 270 266 264 259 256 252 250 247 244 242
304 304 305 303 303 299 297 295 295 296 297 296 295 293 290 289 289 290 290 286 283 282 279 277 276 272 271 270 268 265 262 259 257 253 250 249 246 244
301 303 304 302 300 298 296 295 294 295 295 294 293 293 290 287 288 288 288 286 283 281 280 278 279 276 272 271 268 266 262 260 259 257 254 251 248 247
300 301 302 303 300 298 296 295 295 295 295 294 293 291 289 287 287 287 286 285 283 281 282 281 280 280 276 273 270 268 264 261 260 259 256 252 249 248
299 299 298 300 301 298 297 296 295 295 294 295 294 292 290 289 288 287 285 284 284 281 281 280 279 279 277 274 272 270 268 265 261 259 257 255 251 249
297 298 297 297 298 298 297 296 295 294 293 294 294 292 290 289 288 287 286 285 284 282 281 280 279 277 275 276 274 273 270 268 265 262 258 256 253 251
297 297 296 295 295 295 296 295 295 294 292 294 294 292 290 288 287 286 286 286 284 281 280 280 276 275 274 274 274 274 270 268 268 265 262 258 253 252
296 298 296 295 294 294 295 296 296 294 293 295 294 291 290 288 287 285 283 283 283 281 280 279 277 276 275 273 273 272 271 271 268 265 263 261 259 257
296 297 296 294 295 295 295 295 297 294 293 293 292 290 290 288 286 285 285 283 282 282 282 279 277 276 275 275 273 272 272 271 268 266 264 262 261 260
295 295 293 294 295 294 294 294 295 295 294 292 291 289 288 287 285 285 285 283 281 279 280 279 278 277 276 275 274 273 272 270 267 267 265 265 263 262
293 292 292 292 293 292 292 293 293 293 294 292 290 288 288 287 286 286 286 284 281 279 279 279 278 278 276 275 275 274 272 270 268 267 267 268 266 266
291 291 292 291 291 291 291 292 292 292 291 291 289 289 289 289 288 287 286 285 282 281 280 279 280 281 279 277 275 275 274 271 268 265 266 268 267 266
290 289 289 289 290 290 290 291 290 291 291 289 289 290 290 290 289 287 285 283 282 281 281 280 279 281 281 278 275 274 273 271 269 268 268 268 267 266
289 288 287 287 288 288 288 289 290 291 290 289 288 289 291 290 289 287 286 284 283 281 281 281 280 279 280 278 277 274 272 271 270 269 268 268 267 266
287 287 288 287 286 286 287 289 291 293 291 289 288 289 292 292 290 288 285 284 284 281 282 282 281 279 278 277 276 274 273 272 270 269 269 268 268 267
285 286 287 287 286 285 286 288 291 293 293 291 290 291 292 292 290 288 286 284 284 283 283 282 281 280 278 276 275 273 272 271 269 268 268 267 267 268
285 284 285 286 285 284 285 287 290 292 292 291 290 291 292 292 292 289 286 285 285 284 284 283 283 282 280 280 277 275 274 273 271 268 268 267 267 267
286 284 283 284 283 284 285 287 289 291 291 291 292 292 292 291 291 291 288 287 286 285 285 285 284 283 280 279 278 277 276 275 272 270 269 269 268 268
286 285 285 285 284 285 286 287 289 290 290 289 290 290 291 290 290 290 289 287 287 287 286 287 286 284 282 281 280 278 276 274 273 271 269 268 268 268
286 284 285 285 286 287 287 289 291 291 290 289 289 289 289 289 289 289 289 288 287 286 285 287 288 287 285 284 283 281 279 276 274 272 269 267 267 266
287 286 285 286 288 289 290 291 292 292 291 291 290 289 289 289 288 289 289 288 287 285 285 285 285 285 283 283 282 281 279 278 275 272 272 271 270 267
286 285 286 287 287 286 288 289 291 292 292 291 292 291 289 288 288 288 287 288 288 286 284 282 283 284 283 283 283 281 280 278 276 273 272 271 271 271
Height
5858 5856 5854 5852 5850 5848 5847 5845 5844 5842 5841 5839 5837 5835 5833 5832 5830 5829 5827 5826 5825 5824 5822 5821 5820 5819 5818 5817 5816 5816 5815 5815 5816 5817 5818 5819 5820 5822
5853 5851 5850 5848 5845 5844 5842 5841 5839 5837 5836 5834 5832 5830 5828 5827 5825 5824 5822 5821 5819 5818 5817 5815 5814 5813 5812 5811 5810 5810 5810 5810 5810 5811 5812 5814 5815 5817
5849 5847 5845 5843 5841 5839 5837 5835 5833 5832 5830 5828 5826 5824 5823 5821 5820 5818 5817 5815 5813 5812 5810 5809 5808 5807 5806 5805 5804 5804 5804 5804 5805 5805 5807 5808 5809 5811
5844 5842 5840 5838 5836 5834 5832 5830 5828 5826 5824 5823 5821 5818 5817 5815 5814 5812 5810 5809 5807 5805 5804 5803 5802 5801 5800 5799 5799 5798 5798 5798 5799 5799 5800 5802 5803 5805
5838 5836 5834 5832 5830 5828 5826 5824 5822 5820 5818 5816 5815 5812 5811 5809 5807 5806 5804 5803 5801 5799 5798 5797 5795 5795 5794 5794 5793 5793 5792 5792 5793 5793 5794 5795 5796 5798
5833 5831 5828 5826 5824 5822 5820 5818 5815 5814 5812 5810 5808 5806 5804 5802 5801 5800 5798 5796 5795 5793 5792 5791 5790 5789 5788 5788 5787 5787 5786 5786 5786 5787 5787 5788 5789 5791
5827 5824 5822 5820 5818 5815 5813 5811 5809 5807 5805 5803 5801 5800 5798 5796 5795 5793 5791 5790 5788 5787 5786 5785 5783 5783 5782 5781 5781 5780 5780 5780 5780 5780 5780 5781 5782 5783
5820 5818 5816 5813 5811 5809 5807 5805 5803 5801 5799 5797 5795 5793 5791 5790 5788 5787 5785 5784 5782 5781 5779 5778 5777 5776 5775 5775 5774 5773 5773 5773 5773 5773 5774 5774 5775 5776
5814 5811 5809 5806 5804 5802 5800 5798 5796 5794 5792 5790 5788 5786 5785 5783 5781 5780 5778 5777 5775 5774 5772 5771 5770 5769 5768 5768 5767 5767 5766 5766 5766 5766 5767 5767 5767 5768
5807 5805 5802 5800 5797 5795 5793 5791 5789 5787 5785 5783 5781 5780 5778 5776 5774 5773 5771 5769 5768 5767 5765 5764 5763 5762 5762 5761 5760 5760 5759 5759 5759 5759 5759 5759 5759 5760
5800 5797 5795 5793 5790 5788 5786 5784 5782 5780 5777 5776 5774 5772 5771 5769 5767 5765 5764 5762 5761 5760 5758 5757 5757 5756 5755 5754 5753 5752 5752 5751 5751 5751 5751 5751 5751 5752
5792 5790 5788 5786 5784 5781 5779 5777 5775 5773 5771 5769 5767 5765 5763 5761 5759 5758 5756 5755 5753 5752 5751 5750 5749 5748 5748 5747 5746 5745 5744 5743 5743 5743 5743 5743 5743 5743
5785 5782 5780 5778 5776 5774 5772 5770 5767 5765 5763 5761 5760 5758 5756 5754 5752 5750 5748 5747 5746 5745 5744 5742 5742 5741 5740 5739 5738 5737 5736 5735 5735 5734 5734 5734 5734 5735
5777 5775 5773 5771 5769 5767 5764 5762 5760 5758 5756 5754 5752 5750 5748 5746 5744 5742 5740 5739 5738 5737 5735 5734 5734 5733 5732 5731 5730 5729 5728 5727 5726 5726 5726 5725 5725 5725
5769 5767 5765 5763 5761 5759 5757 5754 5752 5750 5748 5747 5745 5743 5740 5738 5736 5734 5732 5730 5729 5728 5727 5726 5725 5724 5723 5722 5721 5720 5719 5719 5718 5717 5717 5716 5716 5716
5761 5759 5757 5754 5752 5750 5748 5746 5744 5742 5740 5739 5736 5734 5732 5730 5727 5725 5724 5722 5721 5719 5718 5717 5716 5715 5714 5713 5712 5712 5711 5710 5709 5708 5708 5707 5707 5707
5752 5750 5748 5746 5744 5742 5740 5738 5736 5734 5732 5730 5728 5726 5723 5721 5718 5716 5715 5713 5712 5711 5710 5708 5707 5706 5705 5704 5704 5703 5702 5701 5700 5699 5699 5699 5698 5698
5744 5742 5740 5737 5735 5733 5732 5730 5728 5726 5724 5721 5719 5717 5715 5712 5710 5708 5706 5705 5704 5702 5701 5699 5698 5696 5696 5694 5694 5693 5692 5691 5691 5690 5689 5690 5690 5689
5735 5733 5731 5729 5727 5724 5723 5721 5719 5717 5715 5713 5711 5709 5706 5704 5702 5700 5698 5697 5695 5694 5692 5691 5689 5687 5686 5685 5684 5683 5683 5681 5681 5680 5680 5680 5680 5679
5726 5724 5722 5720 5718 5716 5714 5712 5711 5709 5706 5705 5703 5701 5699 5696 5694 5692 5691 5689 5687 5685 5683 5682 5680 5678 5677 5676 5675 5674 5672 5671 5671 5670 5670 5670 5669 5669
5718 5716 5714 5712 5710 5708 5706 5704 5702 5700 5698 5696 5694 5692 5690 5688 5686 5684 5683 5681 5679 5677 5675 5674 5671 5670 5668 5667 5666 5665 5663 5662 5661 5660 5660 5659 5659 5658
5709 5707 5705 5704 5702 5700 5698 5696 5694 5692 5690 5688 5686 5684 5682 5680 5678 5676 5674 5672 5671 5669 5667 5666 5663 5662 5660 5659 5658 5656 5655 5653 5652 5651 5650 5650 5649 5649
5700 5698 5697 5695 5694 5692 5690 5688 5686 5684 5682 5679 5677 5675 5673 5671 5669 5668 5666 5664 5662 5661 5659 5657 5655 5654 5652 5651 5649 5648 5646 5644 5643 5642 5641 5640 5640 5639